| time (UTC) | temp F | wind direction | speed MPH | gust MPH | rain 1hr in | rain 24hr in | rain mn in | humidity % | barometer mb |
| 20260510043010 | 61 | 215 | 0.0 | 0.0 | 0.00 | 0.12 | 0.00 | 69 | 1009.6 |
| 20260510041510 | 61 | 217 | 0.0 | 0.0 | 0.00 | 0.12 | 0.00 | 69 | 1009.6 |
| 20260510040037 | 62 | 183 | 0.0 | 0.0 | 0.00 | 0.12 | 0.00 | 68 | 1009.6 |
| 20260510034536 | 62 | 172 | 0.0 | 0.0 | 0.00 | 0.12 | 0.00 | 67 | 1009.5 |
| 20260510033033 | 63 | 219 | 0.0 | 0.0 | 0.00 | 0.12 | 0.00 | 66 | 1009.4 |
| 20260510031529 | 63 | 167 | 0.0 | 0.0 | 0.00 | 0.12 | 0.00 | 65 | 1009.4 |
| 20260510030033 | 64 | 160 | 0.0 | 0.0 | 0.00 | 0.12 | 0.00 | 63 | 1009.2 |
| 20260510024532 | 64 | 265 | 0.0 | 0.0 | 0.00 | 0.12 | 0.00 | 63 | 1009.1 |
| 20260510023018 | 65 | 219 | 0.0 | 0.0 | 0.00 | 0.12 | 0.00 | 60 | 1009.0 |
| 20260510021517 | 65 | 212 | 0.0 | 0.0 | 0.00 | 0.12 | 0.00 | 59 | 1008.9 |
| 20260510020013 | 66 | 235 | 0.0 | 0.0 | 0.00 | 0.12 | 0.00 | 58 | 1008.6 |
| 20260510014512 | 67 | 241 | 0.0 | 0.0 | 0.00 | 0.12 | 0.00 | 56 | 1008.4 |
| 20260510013045 | 68 | 240 | 0.0 | 0.0 | 0.00 | 0.12 | 0.00 | 55 | 1008.3 |
| 20260510011535 | 68 | 224 | 0.0 | 0.0 | 0.00 | 0.12 | 0.00 | 54 | 1008.0 |
| 20260510010030 | 69 | 229 | 0.0 | 0.0 | 0.00 | 0.12 | 0.00 | 53 | 1007.8 |
| 20260510004527 | 69 | 245 | 0.0 | 0.0 | 0.00 | 0.12 | 0.00 | 52 | 1007.6 |
| 20260510003030 | 70 | 236 | 0.0 | 0.0 | 0.00 | 0.12 | 0.00 | 51 | 1007.3 |
| 20260510001521 | 72 | 226 | 0.0 | 0.0 | 0.00 | 0.12 | 0.00 | 48 | 1007.1 |
| 20260510000046 | 73 | 235 | 0.0 | 0.0 | 0.00 | 0.12 | 0.00 | 48 | 1006.9 |
| 20260509234543 | 73 | 261 | 0.0 | 0.0 | 0.00 | 0.12 | 0.00 | 48 | 1006.8 |
| 20260509233039 | 74 | 293 | 0.0 | 0.0 | 0.00 | 0.12 | 0.00 | 48 | 1006.8 |
| 20260509231538 | 74 | 216 | 0.0 | 4.0 | 0.00 | 0.12 | 0.00 | 47 | 1006.6 |
| 20260509230040 | 74 | 220 | 0.0 | 7.0 | 0.00 | 0.12 | 0.00 | 46 | 1006.5 |
| 20260509224538 | 75 | 257 | 0.0 | 0.0 | 0.00 | 0.12 | 0.00 | 45 | 1006.5 |
| 20260509223035 | 74 | 240 | 0.0 | 0.0 | 0.00 | 0.12 | 0.00 | 46 | 1006.5 |
| 20260509221533 | 74 | 187 | 0.0 | 0.0 | 0.00 | 0.12 | 0.00 | 46 | 1006.5 |
| 20260509220031 | 74 | 309 | 0.0 | 18.0 | 0.00 | 0.12 | 0.00 | 43 | 1006.6 |
| 20260509214532 | 74 | 231 | 0.0 | 11.0 | 0.00 | 0.12 | 0.12 | 46 | 1006.6 |
| 20260509213058 | 74 | 150 | 0.0 | 9.0 | 0.00 | 0.12 | 0.12 | 46 | 1006.5 |
| 20260509211556 | 74 | 184 | 0.0 | 11.0 | 0.00 | 0.12 | 0.12 | 47 | 1006.7 |
| 20260509210029 | 74 | 272 | 0.0 | 8.0 | 0.00 | 0.12 | 0.12 | 49 | 1006.8 |
| 20260509204524 | 73 | 203 | 0.0 | 4.0 | 0.00 | 0.12 | 0.12 | 51 | 1006.8 |
| 20260509203055 | 73 | 238 | 0.0 | 0.0 | 0.00 | 0.12 | 0.12 | 49 | 1007.0 |
| 20260509201553 | 73 | 156 | 2.0 | 12.0 | 0.00 | 0.12 | 0.12 | 51 | 1007.1 |
| 20260509200052 | 72 | 254 | 2.0 | 11.0 | 0.00 | 0.12 | 0.12 | 54 | 1007.3 |
| 20260509194546 | 72 | 269 | 0.0 | 2.0 | 0.00 | 0.12 | 0.12 | 53 | 1007.2 |
| 20260509193044 | 71 | 324 | 0.0 | 0.0 | 0.00 | 0.12 | 0.12 | 53 | 1007.4 |
| 20260509191543 | 71 | 286 | 0.0 | 0.0 | 0.00 | 0.12 | 0.12 | 55 | 1007.6 |
| 20260509190011 | 70 | 283 | 0.0 | 13.0 | 0.00 | 0.12 | 0.12 | 55 | 1007.8 |
| 20260509184510 | 70 | 300 | 1.0 | 12.0 | 0.00 | 0.12 | 0.12 | 53 | 1007.8 |
| 20260509183038 | 69 | 315 | 0.0 | 0.0 | 0.00 | 0.12 | 0.12 | 54 | 1007.9 |
| 20260509181544 | 69 | 262 | 0.0 | 4.0 | 0.00 | 0.12 | 0.12 | 60 | 1007.9 |
| 20260509180030 | 68 | 306 | 0.0 | 0.0 | 0.00 | 0.12 | 0.12 | 59 | 1007.9 |
| 20260509174535 | 67 | 284 | 0.0 | 0.0 | 0.00 | 0.12 | 0.12 | 62 | 1008.0 |
| 20260509173030 | 66 | 300 | 0.0 | 0.0 | 0.00 | 0.12 | 0.12 | 64 | 1008.0 |
| 20260509171532 | 66 | 285 | 0.0 | 8.0 | 0.00 | 0.12 | 0.12 | 62 | 1008.0 |
| 20260509164558 | 65 | 265 | 0.0 | 0.0 | 0.00 | 0.12 | 0.12 | 65 | 1008.2 |
| 20260509163110 | 65 | 292 | 0.0 | 7.0 | 0.00 | 0.12 | 0.12 | 71 | 1008.3 |
| 20260509161601 | 65 | 309 | 0.0 | 4.0 | 0.00 | 0.12 | 0.12 | 68 | 1008.2 |
| 20260509160055 | 65 | 134 | 0.0 | 1.0 | 0.00 | 0.12 | 0.12 | 72 | 1008.0 |
| 20260509154555 | 63 | 223 | 0.0 | 9.0 | 0.00 | 0.12 | 0.12 | 73 | 1008.0 |
| 20260509153058 | 63 | 179 | 0.0 | 0.0 | 0.00 | 0.12 | 0.12 | 77 | 1007.9 |
| 20260509151556 | 62 | 234 | 0.0 | 0.0 | 0.00 | 0.12 | 0.12 | 77 | 1007.7 |
| 20260509150056 | 61 | 203 | 0.0 | 0.0 | 0.00 | 0.12 | 0.12 | 75 | 1007.8 |
| 20260509150054 | 61 | 269 | 0.0 | 0.0 | 0.00 | 0.12 | 0.12 | 75 | 1007.8 |
| 20260509144552 | 60 | 229 | 0.0 | 0.0 | 0.00 | 0.12 | 0.12 | 82 | 1007.6 |
| 20260509143055 | 59 | 224 | 0.0 | 0.0 | 0.00 | 0.12 | 0.12 | 86 | 1007.6 |
| 20260509141532 | 58 | 162 | 0.0 | 0.0 | 0.00 | 0.12 | 0.12 | 91 | 1007.5 |
| 20260509140020 | 57 | 242 | 0.0 | 0.0 | 0.00 | 0.12 | 0.12 | 94 | 1007.6 |
| 20260509134551 | 56 | 174 | 0.0 | 0.0 | 0.00 | 0.12 | 0.12 | 96 | 1007.6 |
| 20260509133049 | 55 | 144 | 0.0 | 0.0 | 0.00 | 0.12 | 0.12 | 96 | 1007.5 |
| 20260509131545 | 55 | 147 | 0.0 | 0.0 | 0.00 | 0.12 | 0.12 | 96 | 1007.3 |
| 20260509130048 | 54 | 160 | 0.0 | 0.0 | 0.00 | 0.12 | 0.12 | 96 | 1007.5 |
| 20260509124548 | 54 | 156 | 0.0 | 0.0 | 0.00 | 0.12 | 0.12 | 97 | 1007.6 |
| 20260509123052 | 54 | 200 | 0.0 | 0.0 | 0.00 | 0.12 | 0.12 | 96 | 1007.5 |
| 20260509121541 | 54 | 169 | 0.0 | 0.0 | 0.00 | 0.12 | 0.12 | 96 | 1007.6 |
| 20260509120039 | 0 | 0.0 | 0.0 | 0.00 | 0.12 | 0.12 | 1007.5 | ||
| 20260509114538 | 0 | 0.0 | 0.0 | 0.00 | 0.12 | 0.12 | 1007.5 | ||
| 20260509113036 | 0 | 0.0 | 0.0 | 0.00 | 0.12 | 0.12 | 1007.6 | ||
| 20260509111539 | 0 | 0.0 | 0.0 | 0.02 | 0.12 | 0.12 | 1007.6 | ||
| 20260509110019 | 0 | 0.0 | 0.0 | 0.03 | 0.12 | 0.12 | 1007.2 | ||
| 20260509104525 | 0 | 0.0 | 0.0 | 0.03 | 0.12 | 0.12 | 1007.4 | ||
| 20260509103011 | 53 | 190 | 0.0 | 0.0 | 0.04 | 0.12 | 0.12 | 96 | 1007.7 |
| 20260509101509 | 53 | 190 | 0.0 | 0.0 | 0.02 | 0.10 | 0.10 | 96 | 1007.9 |
| 20260509100014 | 53 | 190 | 0.0 | 0.0 | 0.02 | 0.09 | 0.09 | 96 | 1007.7 |
| 20260509094509 | 53 | 190 | 0.0 | 0.0 | 0.03 | 0.09 | 0.09 | 95 | 1007.8 |
| 20260509093007 | 53 | 190 | 0.0 | 0.0 | 0.03 | 0.08 | 0.08 | 95 | 1007.6 |
| 20260509091502 | 53 | 190 | 0.0 | 0.0 | 0.05 | 0.08 | 0.08 | 95 | 1007.9 |
| 20260509090101 | 53 | 190 | 0.0 | 0.0 | 0.04 | 0.07 | 0.07 | 95 | 1008.4 |
| 20260509084559 | 53 | 190 | 0.0 | 0.0 | 0.04 | 0.06 | 0.06 | 95 | 1008.4 |
| 20260509083059 | 54 | 190 | 0.0 | 0.0 | 0.03 | 0.05 | 0.05 | 95 | 1008.6 |
| 20260509081532 | 54 | 190 | 0.0 | 0.0 | 0.02 | 0.03 | 0.03 | 94 | 1008.6 |
| 20260509080030 | 54 | 190 | 0.0 | 0.0 | 0.02 | 0.03 | 0.03 | 94 | 1008.4 |
| 20260509074556 | 54 | 190 | 0.0 | 0.0 | 0.01 | 0.02 | 0.02 | 94 | 1008.5 |
| 20260509073105 | 54 | 190 | 0.0 | 0.0 | 0.02 | 0.02 | 0.02 | 94 | 1008.4 |
| 20260509071526 | 54 | 190 | 0.0 | 0.0 | 0.01 | 0.01 | 0.01 | 94 | 1008.7 |
| 20260509070025 | 54 | 190 | 0.0 | 0.0 | 0.01 | 0.01 | 0.01 | 93 | 1008.9 |
| 20260509064553 | 54 | 190 | 0.0 | 0.0 | 0.01 | 0.01 | 0.01 | 93 | 1009.0 |
| 20260509063100 | 54 | 190 | 0.0 | 0.0 | 0.00 | 0.00 | 0.00 | 92 | 1009.0 |
| 20260509061536 | 54 | 190 | 0.0 | 0.0 | 0.00 | 0.00 | 0.00 | 92 | 1008.6 |
| 20260509060021 | 54 | 190 | 0.0 | 0.0 | 0.00 | 0.00 | 0.00 | 91 | 1008.7 |
| 20260509054515 | 54 | 190 | 0.0 | 0.0 | 0.00 | 0.00 | 0.00 | 90 | 1008.8 |
| 20260509053027 | 55 | 190 | 0.0 | 0.0 | 0.00 | 0.00 | 0.00 | 89 | 1008.9 |
| 20260509051512 | 55 | 190 | 0.0 | 0.0 | 0.00 | 0.00 | 0.00 | 88 | 1008.9 |
| 20260509050011 | 55 | 190 | 0.0 | 0.0 | 0.00 | 0.00 | 0.00 | 87 | 1009.0 |
| 20260509044508 | 55 | 190 | 0.0 | 0.0 | 0.00 | 0.00 | 0.00 | 86 | 1009.0 |